Regional Weather Roundup
Issued by NWS

Home | Current Version | Previous Version | Graphics & Text | Print | Product List | Glossary On
Versions: 1 2 3 4 5 6 7 8 9 10 11 12 13 14 15 16 17 18 19 20 21 22 23 24 25 26 27 28 29 30 31 32 33 34 35 36 37 38 39 40 41 42 43 44 45 46 47 48 49 50
000
ASUS43 KTOP 090659
RWRKS

WEATHER ROUNDUP FOR KANSAS
NATIONAL WEATHER SERVICE GOODLAND KS
100 AM CST FRI DEC 09 2016

NOTE:  "FAIR" INDICATES FEW OR NO CLOUDS BELOW 12,000 FEET WITH NO
SIGNIFICANT WEATHER AND/OR OBSTRUCTIONS TO VISIBILITY.

KSZ001>006-013>018-027>032-041>047-090800-
NORTHWEST KANSAS

CITY           SKY/WX    TMP DP  RH WIND       PRES   REMARKS
GOODLAND       CLOUDY     8   2  76 S10       30.37F WCI  -6
HAYS           CLOUDY     7   3  84 CALM      30.58F
HILL CITY      CLOUDY     2  -3  80 N5        30.56F
RUSSELL        CLOUDY     9   4  80 S3        30.58F
$$

KSZ061>065-074>080-084>089-090800-
SOUTHWEST KANSAS

CITY           SKY/WX    TMP DP  RH WIND       PRES   REMARKS
DODGE CITY     CLOUDY    19  10  68 SE6       30.53F
ELKHART          N/A     21   0  40 S13         N/A  WCI   9
GARDEN CITY    CLOUDY    20   6  55 SE10      30.48F WCI   9
GREAT BEND     CLOUDY     9   4  80 CALM      30.60F
LIBERAL        CLOUDY    25   3  39 SE8       30.49F
$$

KSZ066>073-081>083-090>101-090800-
SOUTHEAST KANSAS

CITY           SKY/WX    TMP DP  RH WIND       PRES   REMARKS
CHANUTE        CLEAR     15  10  80 NW3       30.65F
COFFEYVILLE    CLEAR     17  11  77 CALM      30.68F
HUTCHINSON     CLOUDY    10   6  84 NW5       30.63F
MEDICINE LODGE   N/A     10   6  84 CALM      30.63F
NEWTON         CLOUDY    14   8  77 N5        30.63F
PARSONS        CLEAR     12   9  87 CALM      30.67F
WICHITA INTL   PTCLDY    13   9  84 CALM      30.65S
WICHITA JABRA  CLEAR     16   8  71 N3        30.64S
WINFIELD       CLEAR     16  10  77 CALM      30.66F
$$

KSZ007>012-019>026-033>040-048>060-102>105-090800-
NORTHEAST KANSAS

CITY           SKY/WX    TMP DP  RH WIND       PRES   REMARKS
CONCORDIA      CLEAR     11   6  81 CALM      30.63F
EMPORIA        CLEAR     13   9  84 W3        30.64F
LAWRENCE       CLEAR      9   7  92 NW3       30.67S
MANHATTAN      CLEAR     10   5  80 SW3       30.66F
OLATHE IND     CLEAR     14   9  80 NW6       30.65S
OLATHE EXE     CLEAR     16   8  71 NW5       30.64S
SALINA         CLOUDY    14   7  73 W5        30.66S
TOPEKA BILLARD CLEAR     12   6  77 CALM      30.67S
TOPEKA FORBES  CLEAR     14   8  77 NW5       30.65S
$$




USA.gov is the U.S. government's official web portal to all federal, state and local government web resources and services.